Flag for Malaysia Weather past 2 weeks in Langkawi, Malaysia

Now
79 °F

Broken clouds.


Feels Like: 81 °F
Forecast: 78 / 92 °F
Wind: 2 mph from Northeast

Location: Langkawi

Current Time: Jan 30, 2015 at 9:27:08 AM

Latest Report: Jan 30, 2015 at 8:00 AM


Visibility: N/A

Pressure: 29.86 "Hg

Humidity: 74%

Dew point: 70 °F

Location of LangkawiLocation

Historic Weather in Langkawi — Graph

°F

Langkawi temperature yesterday

Maximum temperature yesterday: 93 °F (at 2:00 PM)
Minimum temperature yesterday: 75 °F (at 2:00 AM)
Average temperature yesterday: 84 °F

Past Weeks' High & Low Weather Summary

 TemperatureHumidityPressure
High93 °F (Jan 29, 2:00 PM)89% (Jan 23, 3:00 AM)30.01 "Hg (Jan 23, 3:00 AM)
Low73 °F (Jan 18, 6:00 AM)49% (Jan 16, 5:00 PM)29.77 "Hg (Jan 28, 4:00 PM)
Average83 °F68%29.89 "Hg
* Reported Jan 15 8:00 AM — Jan 30 8:00 AM, Langkawi, Weather by CustomWeather, © 2014

Note: Actual official high and low records may vary slightly from our data, if they occured in-between our weather recording intervals... More about our weather records

Advertising

Langkawi weather history for previous 24 hours

 ConditionsComfort  
Time TempWeatherWind HumidityBarometerVisibility
8:00 AM
Jan 30
79 °FBroken clouds.2 mph74%29.86 "HgN/A
7:00 AM77 °FPartly cloudy.No wind83%29.86 "HgN/A
6:00 AM79 °FPassing clouds.2 mph79%29.83 "HgN/A
5:00 AM79 °FPassing clouds.1 mph74%29.83 "HgN/A
4:00 AM79 °FPassing clouds.3 mph79%29.83 "HgN/A
3:00 AM81 °FPassing clouds.2 mph79%29.83 "HgN/A
2:00 AM79 °FPassing clouds.No wind84%29.86 "HgN/A
1:00 AM81 °FPassing clouds.No wind79%29.89 "HgN/A
12:00 AM82 °FPassing clouds.No wind74%29.89 "HgN/A
11:00 PM
Jan 29
82 °FPassing clouds.1 mph70%29.89 "HgN/A
10:00 PM84 °FPassing clouds.5 mph66%29.86 "HgN/A
9:00 PM86 °FPassing clouds.9 mph62%29.83 "HgN/A
8:00 PM88 °FPassing clouds.5 mph59%29.83 "HgN/A
7:00 PM90 °FPartly sunny.6 mph55%29.80 "HgN/A
6:00 PM91 °FPartly sunny.7 mph56%29.77 "HgN/A
5:00 PM91 °FPartly sunny.8 mph52%29.77 "HgN/A
4:00 PM91 °FPartly sunny.6 mph56%29.77 "HgN/A
3:00 PM91 °FPartly sunny.6 mph52%29.80 "HgN/A
2:00 PM93 °FPartly sunny.9 mph49%29.83 "HgN/A
1:00 PM91 °FPartly sunny.9 mph52%29.86 "HgN/A
12:00 PM90 °FPartly sunny.6 mph55%29.89 "HgN/A
11:00 AM86 °FPartly sunny.6 mph62%29.89 "HgN/A
10:00 AM84 °FPartly sunny.6 mph66%29.89 "Hg5 mi
9:00 AM81 °FPartly sunny.5 mph74%29.86 "Hg5 mi
Weather by CustomWeather, © 2014

See weather overviewHow to use our weather pages